| time (UTC) | temp F | wind direction | speed MPH | gust MPH | rain 1hr in | rain 24hr in | rain mn in | humidity % | barometer mb |
| 20260831073100 | 50 | 227 | 5.0 | 11.0 | 0.00 | 0.20 | 0.00 | 66 | 1015.6 |
| 20260831071600 | 50 | 299 | 5.0 | 12.0 | 0.00 | 0.20 | 0.00 | 66 | 1015.5 |
| 20260831070056 | 51 | 269 | 5.0 | 11.0 | 0.00 | 0.20 | 0.00 | 64 | 1015.3 |
| 20260831064554 | 51 | 297 | 6.0 | 16.0 | 0.00 | 0.20 | 0.00 | 63 | 1015.2 |
| 20260831063048 | 52 | 263 | 9.0 | 15.0 | 0.00 | 0.20 | 0.00 | 62 | 1015.0 |
| 20260831061605 | 51 | 304 | 6.0 | 14.0 | 0.00 | 0.20 | 0.00 | 64 | 1014.9 |
| 20260831054545 | 52 | 201 | 5.0 | 11.0 | 0.00 | 0.20 | 0.20 | 62 | 1014.8 |
| 20260831053053 | 53 | 264 | 6.0 | 12.0 | 0.00 | 0.20 | 0.20 | 60 | 1014.7 |
| 20260831051555 | 53 | 248 | 4.0 | 11.0 | 0.00 | 0.20 | 0.20 | 58 | 1014.7 |
| 20260831050054 | 55 | 299 | 4.0 | 11.0 | 0.00 | 0.20 | 0.20 | 52 | 1014.7 |
| 20260831044601 | 55 | 303 | 4.0 | 7.0 | 0.00 | 0.20 | 0.20 | 52 | 1014.7 |
| 20260831043049 | 57 | 238 | 4.0 | 8.0 | 0.00 | 0.20 | 0.20 | 48 | 1014.4 |
| 20260831041551 | 59 | 274 | 2.0 | 9.0 | 0.00 | 0.20 | 0.20 | 43 | 1014.5 |
| 20260831040050 | 61 | 236 | 5.0 | 10.0 | 0.00 | 0.20 | 0.20 | 41 | 1014.3 |
| 20260831034549 | 62 | 280 | 7.0 | 11.0 | 0.00 | 0.20 | 0.20 | 39 | 1014.2 |
| 20260831033056 | 61 | 231 | 3.0 | 10.0 | 0.00 | 0.20 | 0.20 | 42 | 1013.9 |
| 20260831031550 | 61 | 222 | 3.0 | 11.0 | 0.00 | 0.20 | 0.20 | 42 | 1013.8 |
| 20260831030058 | 65 | 232 | 4.0 | 10.0 | 0.00 | 0.20 | 0.20 | 35 | 1013.6 |
| 20260831024600 | 65 | 221 | 7.0 | 11.0 | 0.00 | 0.21 | 0.20 | 34 | 1013.4 |
| 20260831023053 | 65 | 213 | 5.0 | 9.0 | 0.00 | 0.21 | 0.20 | 36 | 1013.1 |
| 20260831021550 | 65 | 235 | 4.0 | 6.0 | 0.00 | 0.21 | 0.20 | 37 | 1012.9 |
| 20260831014557 | 69 | 237 | 7.0 | 14.0 | 0.00 | 0.21 | 0.20 | 29 | 1012.6 |
| 20260831013109 | 69 | 217 | 4.0 | 12.0 | 0.00 | 0.21 | 0.20 | 32 | 1012.5 |
| 20260831011554 | 70 | 280 | 4.0 | 10.0 | 0.00 | 0.21 | 0.20 | 33 | 1012.6 |
| 20260831010053 | 69 | 340 | 5.0 | 18.0 | 0.00 | 0.21 | 0.20 | 31 | 1012.6 |
| 20260831004555 | 70 | 311 | 9.0 | 19.0 | 0.00 | 0.42 | 0.20 | 29 | 1012.5 |
| 20260831003054 | 70 | 334 | 11.0 | 28.0 | 0.00 | 0.42 | 0.20 | 32 | 1012.6 |
| 20260831001545 | 71 | 322 | 13.0 | 24.0 | 0.00 | 0.42 | 0.20 | 31 | 1012.5 |
| 20260831000046 | 70 | 319 | 16.0 | 28.0 | 0.00 | 0.42 | 0.20 | 32 | 1012.3 |
| 20260830234607 | 71 | 337 | 12.0 | 32.0 | 0.00 | 0.42 | 0.20 | 32 | 1012.5 |
| 20260830233104 | 71 | 318 | 14.0 | 27.0 | 0.00 | 0.42 | 0.20 | 30 | 1012.4 |
| 20260830231546 | 70 | 318 | 15.0 | 34.0 | 0.00 | 0.42 | 0.20 | 30 | 1012.2 |
| 20260830230054 | 70 | 309 | 16.0 | 28.0 | 0.00 | 0.42 | 0.20 | 31 | 1012.3 |
| 20260830224546 | 70 | 334 | 12.0 | 27.0 | 0.00 | 0.42 | 0.20 | 32 | 1012.3 |
| 20260830223109 | 69 | 348 | 16.0 | 28.0 | 0.00 | 0.42 | 0.20 | 32 | 1012.5 |
| 20260830221553 | 69 | 308 | 19.0 | 31.0 | 0.00 | 0.42 | 0.20 | 33 | 1012.9 |
| 20260830214608 | 68 | 309 | 17.0 | 31.0 | 0.00 | 0.42 | 0.20 | 32 | 1013.3 |
| 20260830213048 | 68 | 349 | 18.0 | 32.0 | 0.00 | 0.42 | 0.20 | 33 | 1013.5 |
| 20260830211544 | 67 | 271 | 16.0 | 36.0 | 0.00 | 0.42 | 0.20 | 37 | 1013.7 |
| 20260830210109 | 68 | 248 | 14.0 | 28.0 | 0.00 | 0.42 | 0.20 | 37 | 1013.7 |
| 20260830204559 | 66 | 304 | 18.0 | 33.0 | 0.00 | 0.42 | 0.20 | 40 | 1013.8 |
| 20260830203049 | 66 | 319 | 11.0 | 32.0 | 0.00 | 0.42 | 0.20 | 43 | 1014.0 |
| 20260830201547 | 66 | 306 | 14.0 | 29.0 | 0.00 | 0.42 | 0.20 | 46 | 1014.1 |
| 20260830200055 | 65 | 287 | 14.0 | 23.0 | 0.00 | 0.42 | 0.20 | 47 | 1014.1 |
| 20260830194553 | 64 | 338 | 10.0 | 24.0 | 0.00 | 0.42 | 0.20 | 52 | 1014.1 |
| 20260830193045 | 64 | 319 | 16.0 | 26.0 | 0.00 | 0.42 | 0.20 | 50 | 1014.3 |
| 20260830191544 | 64 | 299 | 9.0 | 20.0 | 0.00 | 0.42 | 0.20 | 53 | 1014.3 |
| 20260830190109 | 63 | 313 | 10.0 | 23.0 | 0.00 | 0.42 | 0.20 | 52 | 1014.0 |
| 20260830184554 | 63 | 269 | 11.0 | 24.0 | 0.00 | 0.42 | 0.20 | 54 | 1014.4 |
| 20260830183057 | 62 | 255 | 8.0 | 18.0 | 0.00 | 0.42 | 0.20 | 59 | 1014.5 |
| 20260830181546 | 62 | 259 | 10.0 | 20.0 | 0.00 | 0.42 | 0.20 | 57 | 1014.5 |
| 20260830180046 | 62 | 309 | 7.0 | 16.0 | 0.00 | 0.42 | 0.20 | 62 | 1014.6 |
| 20260830174605 | 61 | 212 | 6.0 | 10.0 | 0.00 | 0.42 | 0.20 | 68 | 1014.7 |
| 20260830173047 | 60 | 51 | 1.0 | 3.0 | 0.00 | 0.42 | 0.20 | 73 | 1014.9 |
| 20260830171547 | 58 | 323 | 0.0 | 2.0 | 0.00 | 0.42 | 0.20 | 80 | 1015.2 |
| 20260830170057 | 56 | 47 | 1.0 | 5.0 | 0.00 | 0.42 | 0.20 | 87 | 1015.3 |
| 20260830164605 | 55 | 32 | 4.0 | 8.0 | 0.00 | 0.42 | 0.20 | 83 | 1015.5 |
| 20260830163046 | 55 | 264 | 3.0 | 10.0 | 0.00 | 0.42 | 0.20 | 82 | 1014.9 |
| 20260830161555 | 55 | 263 | 3.0 | 5.0 | 0.00 | 0.42 | 0.20 | 84 | 1014.6 |
| 20260830160052 | 55 | 21 | 0.0 | 4.0 | 0.00 | 0.42 | 0.20 | 92 | 1014.4 |
| 20260830154549 | 52 | 337 | 6.0 | 8.0 | 0.00 | 0.42 | 0.20 | 92 | 1014.1 |
| 20260830153048 | 52 | 72 | 5.0 | 7.0 | 0.10 | 0.42 | 0.20 | 91 | 1013.1 |
| 20260830151558 | 52 | 174 | 2.0 | 5.0 | 0.15 | 0.42 | 0.20 | 91 | 1013.7 |
| 20260830150101 | 51 | 233 | 7.0 | 12.0 | 0.18 | 0.42 | 0.20 | 92 | 1014.4 |
| 20260830144553 | 51 | 80 | 3.0 | 9.0 | 0.20 | 0.42 | 0.20 | 91 | 1013.1 |
| 20260830143049 | 51 | 314 | 7.0 | 13.0 | 0.10 | 0.32 | 0.10 | 90 | 1015.6 |
| 20260830141554 | 52 | 304 | 10.0 | 20.0 | 0.05 | 0.27 | 0.05 | 85 | 1015.1 |
| 20260830140052 | 55 | 322 | 11.0 | 23.0 | 0.01 | 0.23 | 0.01 | 78 | 1014.9 |
| 20260830134550 | 58 | 292 | 6.0 | 13.0 | 0.00 | 0.25 | 0.00 | 77 | 1014.0 |
| 20260830133046 | 58 | 184 | 0.0 | 4.0 | 0.00 | 0.25 | 0.00 | 76 | 1013.1 |
| 20260830131545 | 56 | 0 | 0.0 | 2.0 | 0.00 | 0.25 | 0.00 | 81 | 1013.3 |
| 20260830130053 | 54 | 129 | 1.0 | 2.0 | 0.00 | 0.25 | 0.00 | 85 | 1013.3 |
| 20260830124546 | 54 | 146 | 0.0 | 2.0 | 0.00 | 0.26 | 0.00 | 84 | 1013.2 |
| 20260830123048 | 54 | 0 | 0.0 | 0.0 | 0.00 | 0.26 | 0.00 | 85 | 1013.1 |
| 20260830121549 | 54 | 0 | 0.0 | 0.0 | 0.00 | 0.26 | 0.00 | 86 | 1013.3 |
| 20260830120053 | 55 | 0 | 0.0 | 3.0 | 0.00 | 0.26 | 0.00 | 85 | 1013.0 |
| 20260830114556 | 55 | 265 | 2.0 | 10.0 | 0.00 | 0.26 | 0.00 | 85 | 1013.4 |
| 20260830113047 | 55 | 276 | 6.0 | 13.0 | 0.00 | 0.26 | 0.00 | 82 | 1013.1 |
| 20260830111546 | 55 | 267 | 5.0 | 9.0 | 0.00 | 0.26 | 0.00 | 83 | 1012.5 |
| 20260830110059 | 56 | 298 | 5.0 | 10.0 | 0.00 | 0.26 | 0.00 | 83 | 1012.4 |
| 20260830104605 | 54 | 352 | 3.0 | 8.0 | 0.00 | 0.26 | 0.00 | 88 | 1012.4 |
| 20260830103048 | 54 | 307 | 4.0 | 12.0 | 0.00 | 0.26 | 0.00 | 87 | 1012.4 |
| 20260830101545 | 54 | 311 | 6.0 | 12.0 | 0.00 | 0.26 | 0.00 | 87 | 1012.0 |
| 20260830100056 | 56 | 263 | 3.0 | 6.0 | 0.00 | 0.26 | 0.00 | 83 | 1012.1 |
| 20260830094547 | 55 | 257 | 1.0 | 4.0 | 0.00 | 0.26 | 0.00 | 85 | 1011.8 |
| 20260830093045 | 55 | 165 | 4.0 | 6.0 | 0.00 | 0.26 | 0.00 | 84 | 1011.8 |
| 20260830091551 | 55 | 173 | 4.0 | 6.0 | 0.00 | 0.26 | 0.00 | 86 | 1011.9 |
| 20260830090046 | 54 | 211 | 2.0 | 6.0 | 0.00 | 0.26 | 0.00 | 87 | 1012.2 |
| 20260830084555 | 53 | 253 | 1.0 | 4.0 | 0.00 | 0.26 | 0.00 | 90 | 1012.2 |
| 20260830083059 | 54 | 266 | 1.0 | 4.0 | 0.00 | 0.26 | 0.00 | 90 | 1012.3 |
| 20260830081545 | 54 | 252 | 1.0 | 2.0 | 0.00 | 0.26 | 0.00 | 91 | 1012.0 |
| 20260830080046 | 54 | 301 | 0.0 | 1.0 | 0.00 | 0.26 | 0.00 | 92 | 1011.7 |
| 20260830074551 | 55 | 0 | 0.0 | 0.0 | 0.00 | 0.26 | 0.00 | 92 | 1011.5 |